,,Stat5,,Stat1,,Stat2,,Stat3,,Stat4,,Wind1,,Wind1,
time,status,PA1M_AVG,status,PR1M_SUM,status,RH1M_AVG,status,SR1M_AVG,status,TA1M_AVG,status,W1dAve1m,status,W1sAve1m,
2000-12-08, 00:00:00,VALID,917.554,VALID,0,VALID,96.7704,VALID,0.101885,VALID,19.1174,VALID,49,VALID,0,
2000-12-08, 00:01:00,VALID,917.523,VALID,0,VALID,96.7081,VALID,0.101885,VALID,19.1206,VALID,49,VALID,0,
2000-12-08, 00:02:00,VALID,917.502,VALID,0,VALID,96.792,VALID,0.0679233,VALID,19.0941,VALID,63,VALID,0,
2000-12-08, 00:03:00,VALID,917.467,VALID,0,VALID,96.675,VALID,0.0849042,VALID,19.0985,VALID,67,VALID,0.314303,
2000-12-08, 00:04:00,VALID,917.452,VALID,0,VALID,96.1638,VALID,0.0169808,VALID,19.0985,VALID,70,VALID,0.158717,
2000-12-08, 00:05:00,VALID,917.459,VALID,0,VALID,95.8396,VALID,0.0509425,VALID,19.0627,VALID,89,VALID,0.314556,
2000-12-08, 00:06:00,VALID,917.441,VALID,0,VALID,95.5649,VALID,0.0339617,VALID,19.0274,VALID,101,VALID,0.232171,
2000-12-08, 00:07:00,VALID,917.466,VALID,0,VALID,95.8523,VALID,0.0509425,VALID,18.9949,VALID,102,VALID,0.478125,
2000-12-08, 00:08:00,VALID,917.48,VALID,0,VALID,95.79,VALID,0.0509425,VALID,18.9399,VALID,99,VALID,0.569679,
2000-12-08, 00:09:00,VALID,917.494,VALID,0,VALID,95.9629,VALID,0.0509425,VALID,18.8848,VALID,99,VALID,0.432292,
2000-12-08, 00:10:00,VALID,917.518,VALID,0,VALID,96.0888,VALID,0.0679233,VALID,18.8398,VALID,101,VALID,0.526042,
2000-12-08, 00:11:00,VALID,917.523,VALID,0,VALID,96.5326,VALID,0.0169808,VALID,18.8271,VALID,91,VALID,0.663007,
2000-12-08, 00:12:00,VALID,917.513,VALID,0,VALID,96.614,VALID,0.0339617,VALID,18.798,VALID,87,VALID,0.666324,
2000-12-08, 00:13:00,VALID,917.507,VALID,0,VALID,96.7437,VALID,0.0509425,VALID,18.7876,VALID,84,VALID,1.03762,
2000-12-08, 00:14:00,VALID,917.507,VALID,0,VALID,97.1646,VALID,0.0509425,VALID,18.8656,VALID,83,VALID,1.11024,
2000-12-08, 00:15:00,VALID,917.484,VALID,0,VALID,97.1608,VALID,0.0339617,VALID,18.9273,VALID,82,VALID,1.03926,
2000-12-08, 00:16:00,VALID,917.468,VALID,0,VALID,97.0489,VALID,0,VALID,18.9854,VALID,91,VALID,1.38795,
2000-12-08, 00:17:00,VALID,917.461,VALID,0,VALID,96.8721,VALID,0.0339617,VALID,19.0076,VALID,94,VALID,1.27323,
2000-12-08, 00:18:00,VALID,917.456,VALID,0,VALID,96.5364,VALID,0.101885,VALID,18.9981,VALID,93,VALID,0.954309,
2000-12-08, 00:19:00,VALID,917.448,VALID,0,VALID,96.7043,VALID,-0.0169808,VALID,18.9894,VALID,81,VALID,1.10732,
2000-12-08, 00:20:00,VALID,917.435,VALID,0,VALID,96.8657,VALID,-0.0169808,VALID,18.9894,VALID,90,VALID,0.922931,
2000-12-08, 00:21:00,VALID,917.423,VALID,0,VALID,96.9153,VALID,0,VALID,18.9794,VALID,92,VALID,0.574554,
2000-12-08, 00:22:00,VALID,917.419,VALID,0,VALID,96.9611,VALID,-0.0169808,VALID,18.9734,VALID,76,VALID,0.317857,
2000-12-08, 00:23:00,VALID,917.398,VALID,0,VALID,97.0641,VALID,-0.0169808,VALID,18.9769,VALID,74,VALID,0.0160985,
2000-12-08, 00:24:00,VALID,917.392,VALID,0,VALID,97.0845,VALID,-0.0339617,VALID,18.96,VALID,145,VALID,0,
2000-12-08, 00:25:00,VALID,917.358,VALID,0,VALID,96.8174,VALID,-0.0169808,VALID,18.9352,VALID,201,VALID,0,
2000-12-08, 00:26:00,VALID,917.361,VALID,0,VALID,96.7119,VALID,-0.0169808,VALID,18.8964,VALID,267,VALID,0,
2000-12-08, 00:27:00,VALID,917.367,VALID,0,VALID,96.6458,VALID,0,VALID,18.8604,VALID,296,VALID,0,
2000-12-08, 00:28:00,VALID,917.353,VALID,0,VALID,96.2948,VALID,-0.0169808,VALID,18.7602,VALID,158,VALID,0.175781,
2000-12-08, 00:29:00,VALID,917.32,VALID,0,VALID,96.5135,VALID,-0.0169808,VALID,18.7441,VALID,172,VALID,0.190878,
2000-12-08, 00:30:00,VALID,917.318,VALID,0,VALID,96.8454,VALID,0.0339617,VALID,18.7339,VALID,181,VALID,0.0615809,
2000-12-08, 00:31:00,VALID,917.317,VALID,0,VALID,97.0641,VALID,0,VALID,18.7341,VALID,181,VALID,0,
2000-12-08, 00:32:00,VALID,917.309,VALID,0,VALID,97.0768,VALID,0,VALID,18.7145,VALID,181,VALID,0,
2000-12-08, 00:33:00,VALID,917.299,VALID,0,VALID,97.0209,VALID,0,VALID,18.6891,VALID,181,VALID,0,
2000-12-08, 00:34:00,VALID,917.278,VALID,0,VALID,96.6737,VALID,0,VALID,18.6375,VALID,124,VALID,0.248766,
2000-12-08, 00:35:00,VALID,917.255,VALID,0,VALID,96.1448,VALID,0,VALID,18.5306,VALID,113,VALID,0.0348214,
2000-12-08, 00:36:00,VALID,917.236,VALID,0,VALID,96.6356,VALID,-0.0169808,VALID,18.5082,VALID,86,VALID,0.465946,
2000-12-08, 00:37:00,VALID,917.235,VALID,0,VALID,96.9242,VALID,0,VALID,18.4889,VALID,93,VALID,0.292377,
2000-12-08, 00:38:00,VALID,917.242,VALID,0,VALID,97.2917,VALID,0,VALID,18.508,VALID,78,VALID,0.809896,
2000-12-08, 00:39:00,VALID,917.238,VALID,0,VALID,97.7699,VALID,0,VALID,18.5987,VALID,71,VALID,0.622327,
2000-12-08, 00:40:00,VALID,917.224,VALID,0,VALID,97.8487,VALID,-0.0339617,VALID,18.6638,VALID,81,VALID,0.957933,
2000-12-08, 00:41:00,VALID,917.221,VALID,0,VALID,97.733,VALID,-0.0339617,VALID,18.6954,VALID,77,VALID,0.780664,
2000-12-08, 00:42:00,VALID,917.207,VALID,0,VALID,97.691,VALID,0,VALID,18.7512,VALID,76,VALID,0.922098,
2000-12-08, 00:43:00,VALID,917.186,VALID,0,VALID,97.7457,VALID,0,VALID,18.8154,VALID,81,VALID,0.923142,
2000-12-08, 00:44:00,VALID,917.176,VALID,0,VALID,97.602,VALID,0,VALID,18.8244,VALID,78,VALID,0.612592,
2000-12-08, 00:45:00,VALID,917.17,VALID,0,VALID,97.5969,VALID,-0.0169808,VALID,18.8636,VALID,57,VALID,0.364955,
2000-12-08, 00:46:00,VALID,917.17,VALID,0,VALID,97.5295,VALID,-0.0169808,VALID,18.8964,VALID,71,VALID,0.33774,
2000-12-08, 00:47:00,VALID,917.172,VALID,0,VALID,97.3134,VALID,0,VALID,18.88,VALID,69,VALID,0,
2000-12-08, 00:48:00,VALID,917.154,VALID,0,VALID,97.2994,VALID,0,VALID,18.877,VALID,69,VALID,0,
2000-12-08, 00:49:00,VALID,917.14,VALID,0,VALID,96.8022,VALID,-0.0169808,VALID,18.808,VALID,69,VALID,0,
2000-12-08, 00:50:00,VALID,917.132,VALID,0,VALID,95.8866,VALID,0.0169808,VALID,18.7088,VALID,75,VALID,0,
2000-12-08, 00:51:00,VALID,917.108,VALID,0,VALID,95.4009,VALID,-0.0169808,VALID,18.5761,VALID,109,VALID,0.390862,
2000-12-08, 00:52:00,VALID,917.099,VALID,0,VALID,96.2109,VALID,0.0169808,VALID,18.5396,VALID,106,VALID,0.710286,
2000-12-08, 00:53:00,VALID,917.075,VALID,0,VALID,96.8416,VALID,0,VALID,18.5505,VALID,83,VALID,0.58347,
2000-12-08, 00:54:00,VALID,917.063,VALID,0,VALID,97.3668,VALID,0,VALID,18.5788,VALID,91,VALID,0.926282,
2000-12-08, 00:55:00,VALID,917.044,VALID,0,VALID,97.4189,VALID,0,VALID,18.5883,VALID,79,VALID,0.914453,
2000-12-08, 00:56:00,VALID,917.045,VALID,0,VALID,97.6414,VALID,0.0169808,VALID,18.6333,VALID,77,VALID,0.969866,
2000-12-08, 00:57:00,VALID,917.03,VALID,0,VALID,97.6974,VALID,0,VALID,18.6891,VALID,87,VALID,1.26372,
2000-12-08, 00:58:00,VALID,917.011,VALID,0,VALID,97.6643,VALID,-0.0339617,VALID,18.7252,VALID,87,VALID,1.05836,
2000-12-08, 00:59:00,VALID,917.008,VALID,0,VALID,97.6529,VALID,-0.0169808,VALID,18.7443,VALID,78,VALID,0.838839,
2000-12-08, 01:00:00,VALID,917.004,VALID,0,VALID,97.6529,VALID,0,VALID,18.7734,VALID,79,VALID,0.915865,
2000-12-08, 01:01:00,VALID,917.006,VALID,0,VALID,97.6567,VALID,0,VALID,18.7921,VALID,78,VALID,1.18834,
2000-12-08, 01:02:00,VALID,916.98,VALID,0,VALID,97.6567,VALID,-0.0169808,VALID,18.8415,VALID,65,VALID,0.562294,
2000-12-08, 01:03:00,VALID,916.963,VALID,0,VALID,97.3146,VALID,-0.0169808,VALID,18.7958,VALID,42,VALID,0.215179,
2000-12-08, 01:04:00,VALID,916.949,VALID,0,VALID,97.2943,VALID,-0.0169808,VALID,18.7831,VALID,318,VALID,0.464343,
2000-12-08, 01:05:00,VALID,916.921,VALID,0,VALID,97.5168,VALID,0,VALID,18.7858,VALID,66,VALID,0.195549,
2000-12-08, 01:06:00,VALID,916.905,VALID,0,VALID,97.5715,VALID,-0.0169808,VALID,18.7694,VALID,61,VALID,0,
2000-12-08, 01:07:00,VALID,916.889,VALID,0,VALID,97.5702,VALID,0,VALID,18.751,VALID,61,VALID,0,
2000-12-08, 01:08:00,VALID,916.893,VALID,0,VALID,97.6732,VALID,0,VALID,18.7344,VALID,60,VALID,0,
2000-12-08, 01:09:00,VALID,916.878,VALID,0,VALID,97.7915,VALID,0,VALID,18.7378,VALID,347,VALID,0,
2000-12-08, 01:10:00,VALID,916.883,VALID,0,VALID,97.8423,VALID,0,VALID,18.7182,VALID,325,VALID,0,
2000-12-08, 01:11:00,VALID,916.872,VALID,0,VALID,97.8551,VALID,-0.0169808,VALID,18.6993,VALID,325,VALID,0,
2000-12-08, 01:12:00,VALID,916.867,VALID,0,VALID,97.7991,VALID,0,VALID,18.6531,VALID,6,VALID,0,
2000-12-08, 01:13:00,VALID,916.852,VALID,0,VALID,97.7037,VALID,0,VALID,18.6017,VALID,93,VALID,0,
2000-12-08, 01:14:00,VALID,916.868,VALID,0,VALID,97.7571,VALID,0,VALID,18.5696,VALID,81,VALID,0.310096,
2000-12-08, 01:15:00,VALID,916.852,VALID,0,VALID,97.8614,VALID,0.0339617,VALID,18.5671,VALID,84,VALID,0.620988,
2000-12-08, 01:16:00,VALID,916.85,VALID,0,VALID,97.9733,VALID,0,VALID,18.5567,VALID,49,VALID,0.44778,
2000-12-08, 01:17:00,VALID,916.835,VALID,0,VALID,98.1437,VALID,0,VALID,18.5798,VALID,80,VALID,0.361161,
2000-12-08, 01:18:00,VALID,916.81,VALID,0,VALID,98.2543,VALID,-0.0169808,VALID,18.5888,VALID,73,VALID,0.864583,
2000-12-08, 01:19:00,VALID,916.802,VALID,0,VALID,98.3612,VALID,0,VALID,18.6342,VALID,73,VALID,1.02131,
2000-12-08, 01:20:00,VALID,916.786,VALID,0,VALID,98.5048,VALID,-0.0169808,VALID,18.7055,VALID,73,VALID,1.38368,
2000-12-08, 01:21:00,VALID,916.755,VALID,0,VALID,98.5722,VALID,0,VALID,18.8013,VALID,66,VALID,1.09807,
2000-12-08, 01:22:00,VALID,916.722,VALID,0,VALID,98.4845,VALID,0,VALID,18.8855,VALID,69,VALID,0.921675,
2000-12-08, 01:23:00,VALID,916.715,VALID,0,VALID,98.3535,VALID,-0.0339617,VALID,18.9605,VALID,71,VALID,1.1416,
2000-12-08, 01:24:00,VALID,916.677,VALID,0,VALID,98.1564,VALID,-0.0169808,VALID,18.9891,VALID,62,VALID,1.49665,
2000-12-08, 01:25:00,VALID,916.66,VALID,0,VALID,97.9619,VALID,0,VALID,19.0217,VALID,68,VALID,1.21727,
2000-12-08, 01:26:00,VALID,916.626,VALID,0,VALID,97.7241,VALID,0,VALID,19.0512,VALID,75,VALID,1.21737,
2000-12-08, 01:27:00,VALID,916.61,VALID,0,VALID,97.5562,VALID,-0.0169808,VALID,19.0736,VALID,65,VALID,0.971875,
2000-12-08, 01:28:00,VALID,916.588,VALID,0,VALID,97.3477,VALID,-0.0169808,VALID,19.1188,VALID,60,VALID,1.33794,
2000-12-08, 01:29:00,VALID,916.568,VALID,0,VALID,96.9853,VALID,-0.0169808,VALID,19.1315,VALID,95,VALID,1.28252,
2000-12-08, 01:30:00,VALID,916.577,VALID,0,VALID,96.7449,VALID,0,VALID,19.1054,VALID,67,VALID,0.696546,
2000-12-08, 01:31:00,VALID,916.563,VALID,0,VALID,96.8289,VALID,0.0169808,VALID,19.0828,VALID,63,VALID,0.877009,
2000-12-08, 01:32:00,VALID,916.559,VALID,0,VALID,96.7984,VALID,0,VALID,19.0771,VALID,33,VALID,0.572716,
2000-12-08, 01:33:00,VALID,916.571,VALID,0,VALID,96.7958,VALID,0,VALID,19.0281,VALID,52,VALID,0.506392,
2000-12-08, 01:34:00,VALID,916.564,VALID,0,VALID,96.8022,VALID,-0.0849042,VALID,18.9871,VALID,84,VALID,0.602865,
2000-12-08, 01:35:00,VALID,916.552,VALID,0,VALID,96.7844,VALID,-0.118866,VALID,18.9259,VALID,69,VALID,0.436061,
2000-12-08, 01:36:00,VALID,916.543,VALID,0,VALID,96.9624,VALID,-0.101885,VALID,18.8969,VALID,79,VALID,1.39984,
2000-12-08, 01:37:00,VALID,916.537,VALID,0,VALID,97.2307,VALID,-0.118866,VALID,18.9197,VALID,76,VALID,1.17656,
2000-12-08, 01:38:00,VALID,916.525,VALID,0,VALID,97.2777,VALID,-0.101885,VALID,18.9421,VALID,85,VALID,1.18817,
2000-12-08, 01:39:00,VALID,916.517,VALID,0,VALID,97.3248,VALID,-0.101885,VALID,18.9742,VALID,84,VALID,1.84987,
2000-12-08, 01:40:00,VALID,916.505,VALID,0,VALID,97.2688,VALID,-0.101885,VALID,19.033,VALID,75,VALID,1.51838,
2000-12-08, 01:41:00,VALID,916.495,VALID,0,VALID,97.1722,VALID,-0.101885,VALID,19.0875,VALID,80,VALID,1.88683,
2000-12-08, 01:42:00,VALID,916.479,VALID,0,VALID,96.9891,VALID,-0.101885,VALID,19.1362,VALID,83,VALID,1.22316,
2000-12-08, 01:43:00,VALID,916.468,VALID,0,VALID,96.8111,VALID,-0.101885,VALID,19.1618,VALID,84,VALID,1.39802,
2000-12-08, 01:44:00,VALID,916.452,VALID,0,VALID,96.6674,VALID,-0.101885,VALID,19.1812,VALID,72,VALID,1.37459,
2000-12-08, 01:45:00,VALID,916.444,VALID,0,VALID,96.5758,VALID,-0.101885,VALID,19.2133,VALID,82,VALID,1.72701,
2000-12-08, 01:46:00,VALID,916.449,VALID,0,VALID,96.3635,VALID,-0.101885,VALID,19.2398,VALID,345,VALID,0.558694,
2000-12-08, 01:47:00,VALID,916.434,VALID,0,VALID,96.2795,VALID,-0.101885,VALID,19.1939,VALID,37,VALID,0.278409,
2000-12-08, 01:48:00,VALID,916.41,VALID,0,VALID,96.4576,VALID,-0.0849042,VALID,19.1583,VALID,69,VALID,1.19944,
2000-12-08, 01:49:00,VALID,916.384,VALID,0,VALID,96.5173,VALID,-0.0169808,VALID,19.1899,VALID,73,VALID,1.14803,
2000-12-08, 01:50:00,VALID,916.372,VALID,0,VALID,96.4614,VALID,0,VALID,19.186,VALID,72,VALID,0.767628,
2000-12-08, 01:51:00,VALID,916.353,VALID,0,VALID,96.408,VALID,0,VALID,19.2121,VALID,68,VALID,1.00703,
2000-12-08, 01:52:00,VALID,916.328,VALID,0,VALID,96.2795,VALID,0,VALID,19.2573,VALID,54,VALID,0.753571,
2000-12-08, 01:53:00,VALID,916.314,VALID,0,VALID,96.0392,VALID,0.0169808,VALID,19.2471,VALID,30,VALID,0.462627,
2000-12-08, 01:54:00,VALID,916.305,VALID,0,VALID,96.057,VALID,0.0169808,VALID,19.2021,VALID,59,VALID,1.22725,
2000-12-08, 01:55:00,VALID,916.274,VALID,0,VALID,96.0252,VALID,0,VALID,19.1825,VALID,82,VALID,1.32098,
2000-12-08, 01:56:00,VALID,916.265,VALID,0,VALID,96.1206,VALID,0,VALID,19.1571,VALID,86,VALID,1.71935,
2000-12-08, 01:57:00,VALID,916.267,VALID,0,VALID,96.2414,VALID,-0.0339617,VALID,19.1507,VALID,74,VALID,1.43307,
2000-12-08, 01:58:00,VALID,916.277,VALID,0,VALID,96.2401,VALID,0,VALID,19.177,VALID,64,VALID,1.42085,
2000-12-08, 01:59:00,VALID,916.295,VALID,0,VALID,96.2579,VALID,0.0169808,VALID,19.2381,VALID,59,VALID,2.14308,
2000-12-08, 02:00:00,VALID,916.301,VALID,0,VALID,95.9286,VALID,-0.0169808,VALID,19.3025,VALID,74,VALID,1.46534,
2000-12-08, 02:01:00,VALID,916.283,VALID,0,VALID,95.6183,VALID,-0.0169808,VALID,19.3286,VALID,86,VALID,1.55137,
2000-12-08, 02:02:00,VALID,916.286,VALID,0,VALID,95.4454,VALID,-0.0339617,VALID,19.306,VALID,71,VALID,1.61502,
2000-12-08, 02:03:00,VALID,916.272,VALID,0,VALID,95.5687,VALID,0.0169808,VALID,19.3323,VALID,49,VALID,1.54091,
2000-12-08, 02:04:00,VALID,916.283,VALID,0,VALID,95.378,VALID,0,VALID,19.3868,VALID,66,VALID,1.0621,
2000-12-08, 02:05:00,VALID,916.286,VALID,0,VALID,95.1923,VALID,-0.0169808,VALID,19.3865,VALID,55,VALID,0.892773,
2000-12-08, 02:06:00,VALID,916.288,VALID,0,VALID,95.1987,VALID,0,VALID,19.393,VALID,55,VALID,1.05022,
2000-12-08, 02:07:00,VALID,916.272,VALID,0,VALID,95.1008,VALID,0,VALID,19.3992,VALID,99,VALID,1.09459,
2000-12-08, 02:08:00,VALID,916.265,VALID,0,VALID,95.0969,VALID,0,VALID,19.4024,VALID,91,VALID,1.72587,
2000-12-08, 02:09:00,VALID,916.257,VALID,0,VALID,94.9812,VALID,0,VALID,19.4186,VALID,88,VALID,1.19353,
2000-12-08, 02:10:00,VALID,916.222,VALID,0,VALID,94.9545,VALID,0,VALID,19.4188,VALID,63,VALID,0.864583,
2000-12-08, 02:11:00,VALID,916.198,VALID,0,VALID,94.8909,VALID,0,VALID,19.428,VALID,82,VALID,0.834037,
2000-12-08, 02:12:00,VALID,916.173,VALID,0,VALID,94.8986,VALID,0,VALID,19.4121,VALID,97,VALID,0.458059,
2000-12-08, 02:13:00,VALID,916.176,VALID,0,VALID,94.9253,VALID,-0.0169808,VALID,19.4186,VALID,62,VALID,0.0571429,
2000-12-08, 02:14:00,VALID,916.175,VALID,0,VALID,94.9545,VALID,-0.0169808,VALID,19.393,VALID,61,VALID,0.0496795,
2000-12-08, 02:15:00,VALID,916.154,VALID,0,VALID,95.0753,VALID,0,VALID,19.3639,VALID,59,VALID,0,
2000-12-08, 02:16:00,VALID,916.18,VALID,0,VALID,95.2915,VALID,0,VALID,19.3221,VALID,58,VALID,0,
2000-12-08, 02:17:00,VALID,916.172,VALID,0,VALID,95.4339,VALID,0,VALID,19.2675,VALID,58,VALID,0,
2000-12-08, 02:18:00,VALID,916.172,VALID,0,VALID,95.5713,VALID,0,VALID,19.2222,VALID,58,VALID,0,
2000-12-08, 02:19:00,VALID,916.199,VALID,0,VALID,95.7315,VALID,0,VALID,19.1671,VALID,64,VALID,0.0101562,
2000-12-08, 02:20:00,VALID,916.188,VALID,0,VALID,95.8904,VALID,0,VALID,19.1213,VALID,80,VALID,0.0727679,
2000-12-08, 02:21:00,VALID,916.182,VALID,0,VALID,96.3024,VALID,-0.0339617,VALID,19.1057,VALID,55,VALID,0.444046,
2000-12-08, 02:22:00,VALID,916.169,VALID,0,VALID,96.5631,VALID,-0.0169808,VALID,19.1191,VALID,77,VALID,0.501608,
2000-12-08, 02:23:00,VALID,916.177,VALID,0,VALID,96.7119,VALID,0,VALID,19.1213,VALID,19,VALID,0.364732,
2000-12-08, 02:24:00,VALID,916.179,VALID,0,VALID,96.7488,VALID,0,VALID,19.1375,VALID,29,VALID,0.432893,
2000-12-08, 02:25:00,VALID,916.175,VALID,0,VALID,96.7093,VALID,0,VALID,19.1442,VALID,87,VALID,0.20777,
2000-12-08, 02:26:00,VALID,916.149,VALID,0,VALID,96.7462,VALID,0,VALID,19.1338,VALID,91,VALID,0.596628,
2000-12-08, 02:27:00,VALID,916.133,VALID,0,VALID,96.6877,VALID,0.0169808,VALID,19.1606,VALID,65,VALID,0.594643,
2000-12-08, 02:28:00,VALID,916.132,VALID,0,VALID,96.6394,VALID,0,VALID,19.1961,VALID,86,VALID,0.316106,
2000-12-08, 02:29:00,VALID,916.135,VALID,0,VALID,96.5033,VALID,0.0169808,VALID,19.2347,VALID,83,VALID,0.828598,
2000-12-08, 02:30:00,VALID,916.134,VALID,0,VALID,96.2961,VALID,0,VALID,19.2511,VALID,81,VALID,0.584201,
2000-12-08, 02:31:00,VALID,916.127,VALID,0,VALID,96.2795,VALID,0.0169808,VALID,19.2538,VALID,90,VALID,1.25267,
2000-12-08, 02:32:00,VALID,916.103,VALID,0,VALID,96.2058,VALID,0,VALID,19.2894,VALID,73,VALID,0.99399,
2000-12-08, 02:33:00,VALID,916.089,VALID,0,VALID,95.9845,VALID,0,VALID,19.3314,VALID,81,VALID,0.891992,
2000-12-08, 02:34:00,VALID,916.061,VALID,0,VALID,95.8243,VALID,0,VALID,19.3507,VALID,102,VALID,0.713616,
2000-12-08, 02:35:00,VALID,916.047,VALID,0,VALID,95.7111,VALID,0,VALID,19.3574,VALID,95,VALID,0.916174,
2000-12-08, 02:36:00,VALID,916.027,VALID,0,VALID,95.5636,VALID,0.0169808,VALID,19.3602,VALID,80,VALID,0.890395,
2000-12-08, 02:37:00,VALID,916.013,VALID,0,VALID,95.4733,VALID,0,VALID,19.3671,VALID,82,VALID,0.376689,
2000-12-08, 02:38:00,VALID,916.008,VALID,0,VALID,95.4911,VALID,0.0169808,VALID,19.3607,VALID,84,VALID,0.0160256,
2000-12-08, 02:39:00,VALID,915.985,VALID,0,VALID,95.5789,VALID,0.0169808,VALID,19.3478,VALID,84,VALID,0,
2000-12-08, 02:40:00,VALID,915.967,VALID,0,VALID,95.6552,VALID,0.0169808,VALID,19.3341,VALID,84,VALID,0,
2000-12-08, 02:41:00,VALID,915.961,VALID,0,VALID,95.734,VALID,0,VALID,19.3249,VALID,86,VALID,0,
2000-12-08, 02:42:00,VALID,915.945,VALID,0,VALID,95.7849,VALID,0,VALID,19.3251,VALID,86,VALID,0,
2000-12-08, 02:43:00,VALID,915.935,VALID,0,VALID,95.7798,VALID,0,VALID,19.3187,VALID,69,VALID,0.27983,
2000-12-08, 02:44:00,VALID,915.934,VALID,0,VALID,95.734,VALID,0,VALID,19.3478,VALID,75,VALID,0.689453,
2000-12-08, 02:45:00,VALID,915.93,VALID,0,VALID,95.5992,VALID,-0.0169808,VALID,19.3704,VALID,77,VALID,1.022,
2000-12-08, 02:46:00,VALID,915.912,VALID,0,VALID,95.3169,VALID,0,VALID,19.4091,VALID,92,VALID,1.08894,
2000-12-08, 02:47:00,VALID,915.909,VALID,0,VALID,95.1198,VALID,0,VALID,19.4253,VALID,87,VALID,0.863086,
2000-12-08, 02:48:00,VALID,915.918,VALID,0,VALID,94.9761,VALID,-0.0339617,VALID,19.4184,VALID,69,VALID,0.712946,
2000-12-08, 02:49:00,VALID,915.925,VALID,0,VALID,94.9088,VALID,0,VALID,19.438,VALID,72,VALID,0.711149,
2000-12-08, 02:50:00,VALID,915.948,VALID,0,VALID,94.8032,VALID,0,VALID,19.4479,VALID,64,VALID,0.70795,
2000-12-08, 02:51:00,VALID,915.924,VALID,0,VALID,94.6849,VALID,0.0169808,VALID,19.4606,VALID,72,VALID,0.781027,
2000-12-08, 02:52:00,VALID,915.922,VALID,0,VALID,94.5311,VALID,-0.0169808,VALID,19.4772,VALID,103,VALID,0.619792,
2000-12-08, 02:53:00,VALID,915.918,VALID,0,VALID,94.4395,VALID,0,VALID,19.4477,VALID,91,VALID,0.724873,
2000-12-08, 02:54:00,VALID,915.906,VALID,0,VALID,94.5578,VALID,0,VALID,19.4221,VALID,85,VALID,0.83676,
2000-12-08, 02:55:00,VALID,915.887,VALID,0,VALID,94.6328,VALID,0,VALID,19.4024,VALID,86,VALID,0.703348,
2000-12-08, 02:56:00,VALID,915.879,VALID,0,VALID,94.6595,VALID,0,VALID,19.3902,VALID,87,VALID,0.898037,
2000-12-08, 02:57:00,VALID,915.853,VALID,0,VALID,94.7307,VALID,0,VALID,19.3639,VALID,90,VALID,0.540246,
2000-12-08, 02:58:00,VALID,915.854,VALID,0,VALID,94.8159,VALID,0,VALID,19.3343,VALID,90,VALID,0.634549,
2000-12-08, 02:59:00,VALID,915.838,VALID,0,VALID,94.8083,VALID,0,VALID,19.2958,VALID,93,VALID,0.546464,
2000-12-08, 03:00:00,VALID,915.814,VALID,0,VALID,95.0079,VALID,-0.0169808,VALID,19.2608,VALID,85,VALID,0.745994,
2000-12-08, 03:01:00,VALID,915.784,VALID,0,VALID,95.3233,VALID,0,VALID,19.2541,VALID,91,VALID,1.01875,
2000-12-08, 03:02:00,VALID,915.77,VALID,0,VALID,95.3945,VALID,0.0169808,VALID,19.257,VALID,72,VALID,0.351786,
2000-12-08, 03:03:00,VALID,915.785,VALID,0,VALID,95.3805,VALID,0,VALID,19.257,VALID,79,VALID,0.480363,
2000-12-08, 03:04:00,VALID,915.784,VALID,0,VALID,95.3614,VALID,0,VALID,19.2441,VALID,84,VALID,0.309053,
2000-12-08, 03:05:00,VALID,915.77,VALID,0,VALID,95.397,VALID,0.0169808,VALID,19.2277,VALID,84,VALID,0.443304,
2000-12-08, 03:06:00,VALID,915.765,VALID,0,VALID,95.495,VALID,0,VALID,19.2116,VALID,98,VALID,0.563902,
2000-12-08, 03:07:00,VALID,915.747,VALID,0,VALID,95.7518,VALID,0,VALID,19.2185,VALID,90,VALID,1.00021,
2000-12-08, 03:08:00,VALID,915.728,VALID,0,VALID,95.8548,VALID,0.0169808,VALID,19.2247,VALID,85,VALID,1.13035,
2000-12-08, 03:09:00,VALID,915.72,VALID,0,VALID,95.8459,VALID,0,VALID,19.231,VALID,94,VALID,1.27277,
2000-12-08, 03:10:00,VALID,915.705,VALID,0,VALID,95.926,VALID,-0.0169808,VALID,19.2414,VALID,87,VALID,1.1899,
2000-12-08, 03:11:00,VALID,915.718,VALID,0,VALID,96.0545,VALID,0,VALID,19.2411,VALID,74,VALID,1.14512,
2000-12-08, 03:12:00,VALID,915.719,VALID,0,VALID,96.0748,VALID,-0.0169808,VALID,19.267,VALID,79,VALID,1.23003,
2000-12-08, 03:13:00,VALID,915.713,VALID,0,VALID,95.9871,VALID,0,VALID,19.2861,VALID,89,VALID,1.39679,
2000-12-08, 03:14:00,VALID,915.71,VALID,0,VALID,95.8497,VALID,-0.0169808,VALID,19.3055,VALID,97,VALID,1.34375,
2000-12-08, 03:15:00,VALID,915.694,VALID,0,VALID,95.715,VALID,0,VALID,19.3157,VALID,94,VALID,1.1457,
2000-12-08, 03:16:00,VALID,915.698,VALID,0,VALID,95.7111,VALID,0,VALID,19.3254,VALID,85,VALID,1.48549,
2000-12-08, 03:17:00,VALID,915.694,VALID,0,VALID,95.7162,VALID,0,VALID,19.3281,VALID,87,VALID,1.1098,
2000-12-08, 03:18:00,VALID,915.684,VALID,0,VALID,95.7111,VALID,0,VALID,19.3316,VALID,84,VALID,1.03562,
2000-12-08, 03:19:00,VALID,915.676,VALID,0,VALID,95.7505,VALID,0,VALID,19.312,VALID,87,VALID,0.742857,
2000-12-08, 03:20:00,VALID,915.659,VALID,0,VALID,95.8307,VALID,0.0169808,VALID,19.3217,VALID,90,VALID,0.934295,
2000-12-08, 03:21:00,VALID,915.645,VALID,0,VALID,95.8497,VALID,0.0169808,VALID,19.3311,VALID,80,VALID,1.02259,
2000-12-08, 03:22:00,VALID,915.633,VALID,0,VALID,95.7925,VALID,-0.0169808,VALID,19.3378,VALID,77,VALID,1.19963,
2000-12-08, 03:23:00,VALID,915.616,VALID,0,VALID,95.7264,VALID,0.0509425,VALID,19.3244,VALID,82,VALID,1.05647,
2000-12-08, 03:24:00,VALID,915.597,VALID,0,VALID,95.7327,VALID,0,VALID,19.3346,VALID,79,VALID,0.963141,
2000-12-08, 03:25:00,VALID,915.587,VALID,0,VALID,95.7429,VALID,0.0169808,VALID,19.3314,VALID,84,VALID,0.941525,
2000-12-08, 03:26:00,VALID,915.575,VALID,0,VALID,95.7048,VALID,0,VALID,19.3376,VALID,78,VALID,1.51997,
2000-12-08, 03:27:00,VALID,915.549,VALID,0,VALID,95.6577,VALID,0.0169808,VALID,19.344,VALID,86,VALID,0.777344,
2000-12-08, 03:28:00,VALID,915.532,VALID,0,VALID,95.6806,VALID,-0.0169808,VALID,19.3346,VALID,89,VALID,1.36038,
2000-12-08, 03:29:00,VALID,915.515,VALID,0,VALID,95.5852,VALID,0,VALID,19.3574,VALID,71,VALID,1.34805,
2000-12-08, 03:30:00,VALID,915.526,VALID,0,VALID,95.4339,VALID,0,VALID,19.3798,VALID,87,VALID,0.60558,
2000-12-08, 03:31:00,VALID,915.53,VALID,0,VALID,95.3983,VALID,0,VALID,19.3706,VALID,74,VALID,0.893792,
2000-12-08, 03:32:00,VALID,915.529,VALID,0,VALID,95.4606,VALID,0,VALID,19.3475,VALID,78,VALID,0.4375,
2000-12-08, 03:33:00,VALID,915.511,VALID,0,VALID,95.528,VALID,0,VALID,19.3284,VALID,51,VALID,0.465625,
2000-12-08, 03:34:00,VALID,915.482,VALID,0,VALID,95.7022,VALID,0,VALID,19.312,VALID,18,VALID,0.442508,
2000-12-08, 03:35:00,VALID,915.448,VALID,0,VALID,95.8065,VALID,0,VALID,19.3025,VALID,42,VALID,0.679899,
2000-12-08, 03:36:00,VALID,915.432,VALID,0,VALID,95.7849,VALID,0,VALID,19.2891,VALID,54,VALID,0.775082,
2000-12-08, 03:37:00,VALID,915.433,VALID,0,VALID,95.6374,VALID,-0.0509425,VALID,19.2737,VALID,89,VALID,0.546429,
2000-12-08, 03:38:00,VALID,915.437,VALID,0,VALID,95.7811,VALID,-0.0169808,VALID,19.2282,VALID,59,VALID,0.629006,
2000-12-08, 03:39:00,VALID,915.435,VALID,0,VALID,95.8714,VALID,0,VALID,19.186,VALID,94,VALID,0.737689,
2000-12-08, 03:40:00,VALID,915.431,VALID,0,VALID,95.9591,VALID,-0.0169808,VALID,19.1474,VALID,74,VALID,0.396918,